Falfurrias, TX

12:30 AM CDT on June 24, 2017 (GMT -0500)
Falfurrias

Weather History for KBKS - January, 2013

Change the Weather History Date:

Saturday, January 19, 2013

  Actual Average (KNQI) Record (KNQI)
Temperature  
Mean Temperature 60 °F -  
Max Temperature 75 °F 67 °F 89 °F (2000)
Min Temperature 44 °F 47 °F 34 °F (2003)
Degree Days  
Heating Degree Days 6    
Growing Degree Days 10 (Base 50)    
Moisture  
Dew Point 48 °F    
Average Humidity 68    
Maximum Humidity 97    
Minimum Humidity 31    
Precipitation  
Precipitation 0.00 in - - ()
Sea Level Pressure  
Sea Level Pressure 30.24 in    
Wind  
Wind Speed 2 mph (SE)    
Max Wind Speed 9 mph    
Max Gust Speed 18 mph    
Visibility 10 miles    
Events      
Averages and records for this station are not official NWS values.
T = Trace of Precipitation, MM = Missing Value Source: NWS Daily Summary

Daily Weather History Graph

Daily Weather History Graph

Search for Another Location

Airport or City:

Trip Planner

Search our weather history database for the weather conditions in past years. The results will help you decide how hot, cold, wet, or windy it might be!

Date:

Astronomy

Jan. 19, 2013 Rise Set
Actual Time 7:22 AM CST 6:04 PM CST
Civil Twilight 6:58 AM CST 6:28 PM CST
Nautical Twilight 6:29 AM CST 6:57 PM CST
Astronomical Twilight 6:01 AM CST 7:25 PM CST
Moon 12:25 PM CST (1/19) 1:06 AM CST (1/19)
Length of Visible Light 11h 30m
Length of Day
10h 41m
First Quarter, 57% of the Moon is Illuminated
Jan 19
First Quarter
Jan 26
Full
Feb 3
Last Quarter
Feb 10
New
Feb 17
First Quarter

Hourly Weather History & Observations

Time (CST) Temp. Windchill Dew Point Humidity Pressure Visibility Wind Dir Wind Speed Gust Speed Precip Events Conditions
12:15 AM 49.8 °F - 46.2 °F 87% 30.32 in 10.0 mi Calm Calm - N/A   Clear
12:35 AM 49.3 °F - 46.4 °F 90% 30.31 in 10.0 mi Calm Calm - N/A   Clear
12:55 AM 49.8 °F - 46.6 °F 89% 30.30 in 10.0 mi NNE 3.5 mph - N/A   Clear
1:15 AM 49.3 °F - 47.1 °F 92% 30.30 in 10.0 mi NE 3.5 mph - N/A   Clear
1:35 AM 50.0 °F - 47.1 °F 90% 30.29 in 10.0 mi NE 4.6 mph - N/A   Clear
1:55 AM 50.0 °F - 47.5 °F 91% 30.29 in 10.0 mi Calm Calm - N/A   Clear
2:15 AM 50.2 °F - 47.5 °F 90% 30.29 in 10.0 mi Calm Calm - N/A   Clear
2:35 AM 49.5 °F - 47.3 °F 92% 30.28 in 10.0 mi Calm Calm - N/A   Clear
2:55 AM 49.3 °F - 47.3 °F 93% 30.28 in 10.0 mi Calm Calm - N/A   Clear
3:15 AM 49.3 °F - 47.1 °F 92% 30.27 in 10.0 mi Calm Calm - N/A   Clear
3:35 AM 49.5 °F - 47.5 °F 93% 30.27 in 10.0 mi Calm Calm - N/A   Clear
3:55 AM 48.7 °F - 46.9 °F 93% 30.27 in 10.0 mi Calm Calm - N/A   Clear
4:15 AM 48.7 °F - 47.1 °F 94% 30.27 in 10.0 mi NNW 3.5 mph - N/A   Clear
4:35 AM 48.0 °F - 46.4 °F 94% 30.27 in 10.0 mi Calm Calm - N/A   Clear
4:55 AM 48.2 °F - 46.6 °F 94% 30.26 in 10.0 mi Calm Calm - N/A   Clear
5:15 AM 47.5 °F - 46.4 °F 96% 30.27 in 7.0 mi NW 3.5 mph - N/A   Clear
5:35 AM 46.4 °F 45.2 °F 45.3 °F 96% 30.27 in 7.0 mi NNW 3.5 mph - N/A   Clear
5:55 AM 46.2 °F - 44.8 °F 95% 30.26 in 7.0 mi Calm Calm - N/A   Clear
6:15 AM 45.7 °F - 44.4 °F 95% 30.26 in 7.0 mi Calm Calm - N/A   Clear
7:35 AM 44.6 °F 43.1 °F 43.7 °F 97% 30.28 in 7.0 mi NNW 3.5 mph - N/A   Clear
8:15 AM 44.6 °F - 43.5 °F 96% 30.28 in 7.0 mi Calm Calm - N/A   Clear
8:35 AM 45.9 °F - 44.8 °F 96% 30.29 in 7.0 mi Calm Calm - N/A   Clear
8:55 AM 48.2 °F - 46.6 °F 94% 30.29 in 7.0 mi Calm Calm - N/A   Clear
9:55 AM 58.1 °F - 51.1 °F 77% 30.31 in 10.0 mi Calm Calm - N/A   Clear
10:15 AM 61.0 °F - 51.6 °F 71% 30.31 in 10.0 mi Calm Calm - N/A   Clear
10:35 AM 64.0 °F - 51.3 °F 63% 30.31 in 10.0 mi ESE 4.6 mph - N/A   Clear
10:55 AM 66.6 °F - 51.3 °F 58% 30.31 in 10.0 mi SE 5.8 mph - N/A   Clear
11:15 AM 68.2 °F - 50.5 °F 53% 30.30 in 10.0 mi South 6.9 mph - N/A   Clear
11:35 AM 69.4 °F - 49.3 °F 49% 30.29 in 10.0 mi South 5.8 mph - N/A   Clear
11:55 AM 70.3 °F - 48.4 °F 46% 30.29 in 7.0 mi SSE 8.1 mph - N/A   Clear
12:15 PM 71.1 °F - 47.8 °F 44% 30.27 in 10.0 mi South 4.6 mph - N/A   Clear
12:35 PM 71.6 °F - 46.4 °F 41% 30.26 in 10.0 mi ESE 5.8 mph - N/A   Clear
12:55 PM 72.3 °F - 45.0 °F 37% 30.24 in 10.0 mi South 6.9 mph 18.4 mph N/A   Clear
1:15 PM 72.5 °F - 43.3 °F 35% 30.22 in 10.0 mi SSW 6.9 mph - N/A   Clear
1:55 PM 73.4 °F - 43.7 °F 34% 30.19 in 10.0 mi SSW 9.2 mph - N/A   Clear
2:15 PM 73.6 °F - 43.2 °F 34% 30.18 in 10.0 mi South 5.8 mph - N/A   Clear
2:35 PM 74.7 °F - 43.3 °F 33% 30.17 in 10.0 mi South 5.8 mph - N/A   Clear
2:55 PM 74.5 °F - 44.1 °F 34% 30.17 in 10.0 mi South 3.5 mph - N/A   Clear
3:15 PM 75.2 °F - 45.0 °F 34% 30.16 in 10.0 mi South 9.2 mph - N/A   Clear
3:35 PM 75.0 °F - 43.9 °F 33% 30.16 in 10.0 mi ESE 3.5 mph - N/A   Clear
3:55 PM 75.4 °F - 42.8 °F 31% 30.15 in 10.0 mi Calm Calm - N/A   Clear
4:15 PM 75.6 °F - 43.3 °F 32% 30.15 in 10.0 mi South 4.6 mph - N/A   Clear
4:35 PM 75.6 °F - 43.7 °F 32% 30.14 in 10.0 mi South 8.1 mph - N/A   Clear
4:55 PM 75.2 °F - 43.5 °F 32% 30.14 in 10.0 mi SSW 3.5 mph - N/A   Clear
5:15 PM 75.2 °F - 43.5 °F 32% 30.15 in 10.0 mi South 3.5 mph - N/A   Clear
5:35 PM 74.7 °F - 43.2 °F 32% 30.16 in 10.0 mi SSW 3.5 mph - N/A   Clear
5:55 PM 73.9 °F - 43.5 °F 34% 30.16 in 10.0 mi South 4.6 mph - N/A   Clear
6:15 PM 71.8 °F - 44.6 °F 38% 30.15 in 10.0 mi Calm Calm - N/A   Clear
6:35 PM 70.9 °F - 44.8 °F 39% 30.16 in 10.0 mi Calm Calm - N/A   Clear
6:55 PM 66.6 °F - 51.8 °F 59% 30.17 in 10.0 mi East 9.2 mph - N/A   Clear
7:15 PM 66.2 °F - 52.7 °F 62% 30.17 in 10.0 mi ESE 9.2 mph - N/A   Clear
7:35 PM 65.3 °F - 52.7 °F 64% 30.17 in 10.0 mi ESE 8.1 mph - N/A   Clear
7:55 PM 64.0 °F - 52.7 °F 67% 30.18 in 10.0 mi ESE 5.8 mph - N/A   Clear
8:15 PM 63.1 °F - 52.9 °F 69% 30.19 in 10.0 mi ESE 5.8 mph - N/A   Clear
8:35 PM 62.1 °F - 52.9 °F 72% 30.20 in 10.0 mi ESE 4.6 mph - N/A   Clear
8:55 PM 61.0 °F - 52.9 °F 75% 30.22 in 10.0 mi ESE 3.5 mph - N/A   Clear
9:15 PM 60.8 °F - 52.9 °F 75% 30.22 in 10.0 mi Calm Calm - N/A   Clear
9:35 PM 60.1 °F - 53.1 °F 78% 30.24 in 10.0 mi Calm Calm - N/A   Clear
9:55 PM 58.5 °F - 52.7 °F 81% 30.23 in 10.0 mi ESE 3.5 mph - N/A   Clear
10:15 PM 57.9 °F - 52.5 °F 82% 30.22 in 10.0 mi ESE 4.6 mph - N/A   Clear
10:35 PM 57.2 °F - 52.3 °F 84% 30.23 in 10.0 mi East 3.5 mph - N/A   Clear
10:55 PM 57.2 °F - 52.7 °F 85% 30.23 in 10.0 mi East 3.5 mph - N/A   Clear
11:15 PM 56.5 °F - 52.7 °F 87% 30.22 in 10.0 mi ESE 3.5 mph - N/A   Clear
11:35 PM 55.9 °F - 52.0 °F 87% 30.22 in 10.0 mi Calm Calm - N/A   Clear
11:55 PM 55.6 °F - 52.2 °F 88% 30.22 in 10.0 mi Calm Calm - N/A   Clear